| time (UTC) | temp C | wind direction | speed KPH | gust KPH | rain 1hr cm | rain 24hr cm | rain mn cm | humidity % | barometer mb |
| 20260502215521 | 14 | 251 | 1.6 | 9.7 | 0.00 | 0.00 | 0.00 | 36 | 1020.2 |
| 20260502215031 | 14 | 290 | 3.2 | 9.7 | 0.00 | 0.00 | 0.00 | 38 | 1020.2 |
| 20260502214619 | 14 | 243 | 1.6 | 8.0 | 0.00 | 0.00 | 0.00 | 40 | 1020.4 |
| 20260502214032 | 14 | 262 | 3.2 | 12.9 | 0.00 | 0.00 | 0.00 | 39 | 1020.3 |
| 20260502213528 | 14 | 253 | 3.2 | 9.7 | 0.00 | 0.00 | 0.00 | 39 | 1020.4 |
| 20260502213130 | 14 | 262 | 3.2 | 9.7 | 0.00 | 0.00 | 0.00 | 39 | 1020.5 |
| 20260502212532 | 14 | 115 | 1.6 | 11.3 | 0.00 | 0.00 | 0.00 | 40 | 1020.5 |
| 20260502212035 | 14 | 234 | 4.8 | 11.3 | 0.00 | 0.00 | 0.00 | 40 | 1020.6 |
| 20260502211618 | 14 | 250 | 0.0 | 8.0 | 0.00 | 0.00 | 0.00 | 39 | 1020.7 |
| 20260502211027 | 14 | 249 | 1.6 | 8.0 | 0.00 | 0.00 | 0.00 | 39 | 1020.7 |
| 20260502210530 | 14 | 235 | 1.6 | 11.3 | 0.00 | 0.00 | 0.00 | 40 | 1020.7 |
| 20260502210131 | 14 | 155 | 4.8 | 11.3 | 0.00 | 0.00 | 0.00 | 40 | 1020.5 |
| 20260502205531 | 14 | 283 | 4.8 | 11.3 | 0.00 | 0.00 | 0.00 | 39 | 1020.4 |
| 20260502205041 | 15 | 237 | 1.6 | 11.3 | 0.00 | 0.00 | 0.00 | 45 | 1020.5 |
| 20260502204553 | 15 | 117 | 3.2 | 11.3 | 0.00 | 0.00 | 0.00 | 43 | 1020.6 |
| 20260502204026 | 15 | 249 | 1.6 | 8.0 | 0.00 | 0.00 | 0.00 | 40 | 1020.6 |
| 20260502203532 | 15 | 282 | 3.2 | 8.0 | 0.00 | 0.00 | 0.00 | 43 | 1020.7 |
| 20260502203059 | 15 | 280 | 1.6 | 9.7 | 0.00 | 0.00 | 0.00 | 46 | 1020.7 |
| 20260502202525 | 14 | 350 | 1.6 | 9.7 | 0.00 | 0.00 | 0.00 | 43 | 1020.8 |
| 20260502202036 | 14 | 290 | 1.6 | 8.0 | 0.00 | 0.00 | 0.00 | 42 | 1020.7 |
| 20260502201621 | 14 | 134 | 3.2 | 8.0 | 0.00 | 0.00 | 0.00 | 40 | 1020.7 |
| 20260502201029 | 15 | 230 | 1.6 | 6.4 | 0.00 | 0.00 | 0.00 | 38 | 1020.8 |
| 20260502200524 | 15 | 113 | 1.6 | 11.3 | 0.00 | 0.00 | 0.00 | 39 | 1020.8 |
| 20260502200101 | 15 | 249 | 3.2 | 11.3 | 0.00 | 0.00 | 0.00 | 39 | 1021.0 |
| 20260502195520 | 15 | 283 | 1.6 | 11.3 | 0.00 | 0.00 | 0.00 | 40 | 1021.0 |
| 20260502195031 | 15 | 259 | 3.2 | 11.3 | 0.00 | 0.00 | 0.00 | 39 | 1021.0 |
| 20260502194551 | 15 | 136 | 0.0 | 9.7 | 0.00 | 0.00 | 0.00 | 39 | 1021.0 |
| 20260502194110 | 15 | 259 | 3.2 | 14.5 | 0.00 | 0.00 | 0.00 | 45 | 1021.0 |
| 20260502193537 | 14 | 257 | 0.0 | 14.5 | 0.00 | 0.00 | 0.00 | 43 | 1021.2 |
| 20260502193126 | 14 | 271 | 3.2 | 8.0 | 0.00 | 0.00 | 0.00 | 38 | 1021.4 |
| 20260502192527 | 14 | 264 | 1.6 | 8.0 | 0.00 | 0.00 | 0.00 | 39 | 1021.2 |
| 20260502192025 | 14 | 314 | 1.6 | 6.4 | 0.00 | 0.00 | 0.00 | 47 | 1021.2 |
| 20260502191622 | 13 | 225 | 1.6 | 8.0 | 0.00 | 0.00 | 0.00 | 43 | 1021.3 |
| 20260502191035 | 13 | 257 | 0.0 | 8.0 | 0.00 | 0.00 | 0.00 | 45 | 1021.4 |
| 20260502190535 | 13 | 128 | 3.2 | 9.7 | 0.00 | 0.00 | 0.00 | 41 | 1021.5 |
| 20260502190122 | 13 | 273 | 1.6 | 6.4 | 0.00 | 0.00 | 0.00 | 43 | 1021.5 |
| 20260502185536 | 14 | 260 | 1.6 | 11.3 | 0.00 | 0.00 | 0.00 | 40 | 1021.6 |
| 20260502185035 | 14 | 159 | 3.2 | 11.3 | 0.00 | 0.00 | 0.00 | 43 | 1021.6 |
| 20260502184616 | 14 | 294 | 1.6 | 8.0 | 0.00 | 0.00 | 0.00 | 43 | 1021.6 |
| 20260502184032 | 14 | 227 | 3.2 | 9.7 | 0.00 | 0.00 | 0.00 | 44 | 1021.7 |
| 20260502183544 | 13 | 222 | 0.0 | 9.7 | 0.00 | 0.00 | 0.00 | 45 | 1021.6 |
| 20260502183052 | 13 | 127 | 3.2 | 8.0 | 0.00 | 0.00 | 0.00 | 44 | 1021.7 |
| 20260502182538 | 13 | 178 | 1.6 | 8.0 | 0.00 | 0.00 | 0.00 | 45 | 1021.8 |
| 20260502182044 | 13 | 303 | 1.6 | 12.9 | 0.00 | 0.00 | 0.00 | 43 | 1021.9 |
| 20260502181630 | 13 | 264 | 4.8 | 12.9 | 0.00 | 0.00 | 0.00 | 46 | 1021.9 |
| 20260502181031 | 13 | 206 | 1.6 | 9.7 | 0.00 | 0.00 | 0.00 | 45 | 1021.9 |
| 20260502180523 | 13 | 162 | 3.2 | 9.7 | 0.00 | 0.00 | 0.00 | 44 | 1022.1 |
| 20260502170520 | 13 | 138 | 0.0 | 4.8 | 0.00 | 0.00 | 0.00 | 45 | 1022.0 |
| 20260502170113 | 13 | 264 | 1.6 | 9.7 | 0.00 | 0.00 | 0.00 | 42 | 1022.0 |
| 20260502164035 | 13 | 105 | 1.6 | 8.0 | 0.00 | 0.00 | 0.00 | 45 | 1021.8 |
| 20260502163520 | 12 | 72 | 1.6 | 8.0 | 0.00 | 0.00 | 0.00 | 46 | 1022.1 |
| 20260502163122 | 12 | 68 | 3.2 | 12.9 | 0.00 | 0.00 | 0.00 | 45 | 1022.1 |
| 20260502162526 | 12 | 67 | 4.8 | 12.9 | 0.00 | 0.00 | 0.00 | 45 | 1021.9 |
| 20260502162038 | 12 | 65 | 3.2 | 17.7 | 0.00 | 0.00 | 0.00 | 44 | 1022.0 |
| 20260502161636 | 12 | 295 | 0.0 | 4.8 | 0.00 | 0.00 | 0.00 | 47 | 1022.2 |
| 20260502161015 | 12 | 240 | 0.0 | 4.8 | 0.00 | 0.00 | 0.00 | 42 | 1022.1 |
| 20260502160531 | 12 | 240 | 0.0 | 6.4 | 0.00 | 0.00 | 0.00 | 44 | 1022.1 |
| 20260502160108 | 12 | 122 | 0.0 | 6.4 | 0.00 | 0.00 | 0.00 | 49 | 1022.1 |
| 20260502152036 | 10 | 282 | 1.6 | 6.4 | 0.00 | 0.00 | 0.00 | 46 | 1022.1 |
| 20260502151613 | 10 | 261 | 3.2 | 6.4 | 0.00 | 0.00 | 0.00 | 44 | 1022.0 |
| 20260502151022 | 10 | 263 | 1.6 | 4.8 | 0.00 | 0.00 | 0.00 | 44 | 1022.0 |
| 20260502150537 | 10 | 258 | 1.6 | 4.8 | 0.00 | 0.00 | 0.00 | 43 | 1022.0 |
| 20260502150117 | 10 | 278 | 1.6 | 4.8 | 0.00 | 0.00 | 0.00 | 42 | 1022.1 |
| 20260502140113 | 10 | 255 | 0.0 | 4.8 | 0.00 | 0.00 | 0.00 | 44 | 1021.8 |
| 20260502130521 | 7 | 254 | 0.0 | 1.6 | 0.00 | 0.00 | 0.00 | 46 | 1021.5 |
| 20260502123521 | 6 | 233 | 1.6 | 3.2 | 0.00 | 0.00 | 0.00 | 47 | 1021.0 |
| 20260502123053 | 6 | 151 | 0.0 | 1.6 | 0.00 | 0.00 | 0.00 | 48 | 1021.0 |
| 20260502122529 | 6 | 152 | 0.0 | 1.6 | 0.00 | 0.00 | 0.00 | 47 | 1021.0 |
| 20260502122030 | 6 | 151 | 0.0 | 3.2 | 0.00 | 0.00 | 0.00 | 47 | 1021.1 |
| 20260502121608 | 6 | 151 | 1.6 | 3.2 | 0.00 | 0.00 | 0.00 | 46 | 1021.1 |
| 20260502121028 | 6 | 151 | 1.6 | 3.2 | 0.00 | 0.00 | 0.00 | 46 | 1021.1 |
| 20260502120523 | 6 | 151 | 0.0 | 1.6 | 0.00 | 0.00 | 0.00 | 46 | 1021.0 |
| 20260502120110 | 7 | 152 | 0.0 | 1.6 | 0.00 | 0.00 | 0.00 | 45 | 1021.0 |
| 20260502115526 | 7 | 152 | 0.0 | 1.6 | 0.00 | 0.00 | 0.00 | 44 | 1021.1 |
| 20260502115045 | 7 | 151 | 0.0 | 3.2 | 0.00 | 0.00 | 0.00 | 45 | 1021.0 |
| 20260502114617 | 7 | 151 | 0.0 | 3.2 | 0.00 | 0.00 | 0.00 | 45 | 1021.0 |
| 20260502114031 | 7 | 152 | 1.6 | 3.2 | 0.00 | 0.00 | 0.00 | 45 | 1021.0 |
| 20260502113535 | 7 | 151 | 1.6 | 3.2 | 0.00 | 0.00 | 0.00 | 45 | 1020.9 |
| 20260502113122 | 7 | 152 | 1.6 | 3.2 | 0.00 | 0.00 | 0.00 | 45 | 1021.0 |
| 20260502112535 | 7 | 152 | 1.6 | 1.6 | 0.00 | 0.00 | 0.00 | 45 | 1020.9 |
| 20260502112023 | 7 | 151 | 1.6 | 3.2 | 0.00 | 0.00 | 0.00 | 45 | 1021.0 |
| 20260502111642 | 7 | 151 | 1.6 | 3.2 | 0.00 | 0.00 | 0.00 | 44 | 1021.0 |
| 20260502111036 | 7 | 151 | 1.6 | 3.2 | 0.00 | 0.00 | 0.00 | 45 | 1021.0 |
| 20260502110520 | 7 | 151 | 1.6 | 1.6 | 0.00 | 0.00 | 0.00 | 45 | 1021.0 |
| 20260502110153 | 7 | 151 | 0.0 | 1.6 | 0.00 | 0.00 | 0.00 | 45 | 1021.0 |
| 20260502105525 | 7 | 151 | 1.6 | 1.6 | 0.00 | 0.00 | 0.00 | 45 | 1021.0 |
| 20260502105021 | 7 | 152 | 1.6 | 3.2 | 0.00 | 0.00 | 0.00 | 45 | 1021.1 |
| 20260502104630 | 7 | 152 | 1.6 | 3.2 | 0.00 | 0.00 | 0.00 | 46 | 1021.0 |
| 20260502104023 | 7 | 152 | 1.6 | 3.2 | 0.00 | 0.00 | 0.00 | 46 | 1021.1 |
| 20260502103531 | 7 | 152 | 1.6 | 3.2 | 0.00 | 0.00 | 0.00 | 45 | 1021.1 |
| 20260502103130 | 7 | 152 | 1.6 | 3.2 | 0.00 | 0.00 | 0.00 | 45 | 1021.0 |
| 20260502102524 | 8 | 152 | 0.0 | 3.2 | 0.00 | 0.00 | 0.00 | 44 | 1021.0 |
| 20260502102025 | 8 | 151 | 0.0 | 1.6 | 0.00 | 0.00 | 0.00 | 43 | 1021.0 |
| 20260502101609 | 8 | 151 | 0.0 | 0.0 | 0.00 | 0.00 | 0.00 | 43 | 1020.9 |
| 20260502101039 | 8 | 151 | 0.0 | 1.6 | 0.00 | 0.00 | 0.00 | 43 | 1020.7 |
| 20260502100531 | 8 | 151 | 0.0 | 3.2 | 0.00 | 0.00 | 0.00 | 43 | 1020.7 |
| 20260502100126 | 8 | 153 | 1.6 | 3.2 | 0.00 | 0.00 | 0.00 | 43 | 1020.7 |
| 20260502091035 | 7 | 157 | 1.6 | 3.2 | 0.00 | 0.00 | 0.00 | 45 | 1020.6 |
| 20260502090530 | 7 | 157 | 1.6 | 3.2 | 0.00 | 0.00 | 0.00 | 45 | 1020.6 |
| 20260502090148 | 7 | 160 | 1.6 | 3.2 | 0.00 | 0.00 | 0.00 | 46 | 1020.6 |
| 20260502071024 | 9 | 147 | 0.0 | 1.6 | 0.00 | 0.00 | 0.00 | 40 | 1020.8 |
| 20260502070527 | 9 | 148 | 0.0 | 0.0 | 0.00 | 0.00 | 0.00 | 39 | 1020.9 |
| 20260502070125 | 9 | 148 | 0.0 | 0.0 | 0.00 | 0.00 | 0.00 | 39 | 1020.9 |
| 20260502065537 | 10 | 148 | 0.0 | 1.6 | 0.00 | 0.00 | 0.00 | 38 | 1021.0 |
| 20260502065036 | 10 | 148 | 0.0 | 1.6 | 0.00 | 0.00 | 0.00 | 38 | 1021.0 |
| 20260502064642 | 10 | 148 | 0.0 | 3.2 | 0.00 | 0.00 | 0.00 | 39 | 1020.8 |
| 20260502064015 | 10 | 148 | 0.0 | 4.8 | 0.00 | 0.00 | 0.00 | 39 | 1020.9 |
| 20260502063524 | 10 | 148 | 0.0 | 4.8 | 0.00 | 0.00 | 0.00 | 39 | 1020.9 |
| 20260502063131 | 9 | 143 | 1.6 | 3.2 | 0.00 | 0.00 | 0.00 | 39 | 1020.9 |
| 20260502062528 | 10 | 142 | 1.6 | 3.2 | 0.00 | 0.00 | 0.00 | 38 | 1020.8 |
| 20260502062029 | 10 | 142 | 1.6 | 3.2 | 0.00 | 0.00 | 0.00 | 37 | 1020.8 |
| 20260502061618 | 10 | 141 | 1.6 | 3.2 | 0.00 | 0.00 | 0.00 | 37 | 1020.8 |
| 20260502061034 | 10 | 141 | 0.0 | 1.6 | 0.00 | 0.00 | 0.00 | 37 | 1020.7 |
| 20260502060530 | 10 | 141 | 0.0 | 3.2 | 0.00 | 0.00 | 0.00 | 37 | 1020.8 |
| 20260502060101 | 10 | 141 | 1.6 | 3.2 | 0.00 | 0.00 | 0.00 | 38 | 1020.8 |
| 20260502055526 | 10 | 143 | 1.6 | 3.2 | 0.00 | 0.00 | 0.00 | 38 | 1020.8 |
| 20260502055024 | 10 | 143 | 1.6 | 3.2 | 0.00 | 0.00 | 0.00 | 38 | 1020.8 |
| 20260502054635 | 10 | 136 | 1.6 | 3.2 | 0.00 | 0.00 | 0.00 | 37 | 1020.8 |
| 20260502054028 | 10 | 143 | 1.6 | 3.2 | 0.00 | 0.00 | 0.00 | 38 | 1020.8 |
| 20260502053527 | 10 | 141 | 1.6 | 3.2 | 0.00 | 0.00 | 0.00 | 37 | 1020.8 |
| 20260502053030 | 10 | 144 | 0.0 | 3.2 | 0.00 | 0.00 | 0.00 | 36 | 1020.9 |
| 20260502052527 | 10 | 144 | 1.6 | 3.2 | 0.00 | 0.00 | 0.00 | 35 | 1020.8 |
| 20260502052024 | 10 | 136 | 1.6 | 3.2 | 0.00 | 0.00 | 0.00 | 35 | 1020.9 |
| 20260502051703 | 10 | 137 | 0.0 | 3.2 | 0.00 | 0.00 | 0.00 | 36 | 1020.8 |
| 20260502051016 | 10 | 136 | 0.0 | 3.2 | 0.00 | 0.00 | 0.00 | 36 | 1020.9 |
| 20260502050522 | 10 | 136 | 1.6 | 1.6 | 0.00 | 0.00 | 0.00 | 36 | 1020.9 |
| 20260502050137 | 10 | 136 | 0.0 | 3.2 | 0.00 | 0.00 | 0.00 | 35 | 1021.0 |
| 20260502045524 | 10 | 136 | 1.6 | 3.2 | 0.00 | 0.00 | 0.00 | 36 | 1020.9 |
| 20260502045036 | 10 | 120 | 1.6 | 3.2 | 0.00 | 0.00 | 0.00 | 36 | 1020.9 |
| 20260502044632 | 10 | 148 | 0.0 | 4.8 | 0.00 | 0.00 | 0.00 | 36 | 1021.0 |
| 20260502044023 | 10 | 155 | 0.0 | 4.8 | 0.00 | 0.00 | 0.00 | 36 | 1021.0 |
| 20260502043524 | 10 | 139 | 0.0 | 3.2 | 0.00 | 0.00 | 0.00 | 37 | 1021.0 |
| 20260502043136 | 10 | 140 | 0.0 | 3.2 | 0.00 | 0.00 | 0.00 | 37 | 1021.0 |
| 20260502042523 | 10 | 116 | 0.0 | 1.6 | 0.00 | 0.00 | 0.00 | 36 | 1021.0 |
| 20260502042042 | 10 | 116 | 0.0 | 1.6 | 0.00 | 0.00 | 0.00 | 36 | 1021.0 |
| 20260502041629 | 10 | 116 | 0.0 | 1.6 | 0.00 | 0.00 | 0.00 | 36 | 1021.0 |
| 20260502041030 | 10 | 111 | 0.0 | 1.6 | 0.00 | 0.00 | 0.00 | 36 | 1021.0 |
| 20260502040518 | 10 | 128 | 0.0 | 3.2 | 0.00 | 0.00 | 0.00 | 37 | 1021.1 |
| 20260502040150 | 10 | 146 | 1.6 | 4.8 | 0.00 | 0.00 | 0.00 | 37 | 1021.1 |
| 20260502035533 | 10 | 146 | 1.6 | 4.8 | 0.00 | 0.00 | 0.00 | 36 | 1021.1 |
| 20260502035018 | 10 | 127 | 0.0 | 1.6 | 0.00 | 0.00 | 0.00 | 36 | 1021.0 |
| 20260502034639 | 11 | 122 | 0.0 | 1.6 | 0.00 | 0.00 | 0.00 | 36 | 1021.0 |
| 20260502034031 | 11 | 110 | 0.0 | 1.6 | 0.00 | 0.00 | 0.00 | 36 | 1021.0 |
| 20260502033526 | 11 | 109 | 0.0 | 3.2 | 0.00 | 0.00 | 0.00 | 36 | 1020.9 |
| 20260502033149 | 11 | 113 | 0.0 | 3.2 | 0.00 | 0.00 | 0.00 | 35 | 1020.9 |
| 20260502032523 | 10 | 139 | 0.0 | 3.2 | 0.00 | 0.00 | 0.00 | 37 | 1020.9 |
| 20260502032038 | 11 | 144 | 0.0 | 3.2 | 0.00 | 0.00 | 0.00 | 37 | 1020.9 |
| 20260502031650 | 11 | 103 | 0.0 | 1.6 | 0.00 | 0.00 | 0.00 | 37 | 1020.8 |
| 20260502031035 | 11 | 103 | 0.0 | 3.2 | 0.00 | 0.00 | 0.00 | 37 | 1020.7 |
| 20260502030523 | 10 | 131 | 0.0 | 4.8 | 0.00 | 0.00 | 0.00 | 38 | 1020.6 |
| 20260502030141 | 11 | 75 | 0.0 | 4.8 | 0.00 | 0.00 | 0.00 | 38 | 1020.6 |
| 20260502025542 | 10 | 96 | 0.0 | 3.2 | 0.00 | 0.00 | 0.00 | 38 | 1020.5 |
| 20260502025024 | 11 | 319 | 0.0 | 3.2 | 0.00 | 0.00 | 0.00 | 39 | 1020.5 |
| 20260502024703 | 11 | 112 | 0.0 | 1.6 | 0.00 | 0.00 | 0.00 | 38 | 1020.6 |
| 20260502024028 | 11 | 109 | 0.0 | 3.2 | 0.00 | 0.00 | 0.00 | 39 | 1020.5 |
| 20260502023533 | 11 | 110 | 0.0 | 3.2 | 0.00 | 0.00 | 0.00 | 39 | 1020.5 |
| 20260502023152 | 11 | 99 | 0.0 | 3.2 | 0.00 | 0.00 | 0.00 | 40 | 1020.5 |
| 20260502022532 | 10 | 115 | 0.0 | 1.6 | 0.00 | 0.00 | 0.00 | 40 | 1020.5 |
| 20260502022058 | 10 | 98 | 0.0 | 1.6 | 0.00 | 0.00 | 0.00 | 42 | 1020.5 |
| 20260502021620 | 10 | 99 | 1.6 | 3.2 | 0.00 | 0.00 | 0.00 | 42 | 1020.5 |
| 20260502021023 | 10 | 108 | 1.6 | 3.2 | 0.00 | 0.00 | 0.00 | 43 | 1020.4 |
| 20260502020522 | 10 | 113 | 0.0 | 1.6 | 0.00 | 0.00 | 0.00 | 42 | 1020.2 |
| 20260502020132 | 11 | 97 | 0.0 | 1.6 | 0.00 | 0.00 | 0.00 | 41 | 1020.2 |
| 20260502015543 | 11 | 88 | 0.0 | 4.8 | 0.00 | 0.00 | 0.00 | 41 | 1020.2 |
| 20260502015041 | 11 | 87 | 0.0 | 4.8 | 0.00 | 0.00 | 0.00 | 41 | 1020.4 |
| 20260502014702 | 11 | 98 | 0.0 | 4.8 | 0.00 | 0.00 | 0.00 | 41 | 1020.5 |
| 20260502014036 | 11 | 96 | 0.0 | 4.8 | 0.00 | 0.00 | 0.00 | 40 | 1020.3 |
| 20260502013524 | 11 | 94 | 0.0 | 3.2 | 0.00 | 0.00 | 0.00 | 39 | 1020.4 |
| 20260502013120 | 11 | 88 | 0.0 | 3.2 | 0.00 | 0.00 | 0.00 | 39 | 1020.4 |
| 20260502012521 | 12 | 112 | 0.0 | 6.4 | 0.00 | 0.00 | 0.00 | 38 | 1020.4 |
| 20260502012027 | 12 | 93 | 1.6 | 6.4 | 0.00 | 0.00 | 0.00 | 38 | 1020.3 |
| 20260502011626 | 13 | 115 | 0.0 | 1.6 | 0.00 | 0.00 | 0.00 | 35 | 1020.4 |
| 20260502011030 | 13 | 102 | 0.0 | 4.8 | 0.00 | 0.00 | 0.00 | 35 | 1020.5 |
| 20260502010533 | 13 | 98 | 0.0 | 4.8 | 0.00 | 0.00 | 0.00 | 34 | 1020.5 |
| 20260502010124 | 13 | 86 | 0.0 | 3.2 | 0.00 | 0.00 | 0.00 | 34 | 1020.4 |
| 20260502005523 | 13 | 86 | 0.0 | 3.2 | 0.00 | 0.00 | 0.00 | 34 | 1020.7 |
| 20260502005032 | 13 | 91 | 0.0 | 3.2 | 0.00 | 0.00 | 0.00 | 34 | 1020.6 |
| 20260502004624 | 13 | 108 | 0.0 | 4.8 | 0.00 | 0.00 | 0.00 | 33 | 1020.7 |
| 20260502004023 | 13 | 111 | 1.6 | 4.8 | 0.00 | 0.00 | 0.00 | 35 | 1020.8 |
| 20260502003541 | 13 | 79 | 0.0 | 4.8 | 0.00 | 0.00 | 0.00 | 34 | 1020.8 |
| 20260502003128 | 13 | 88 | 3.2 | 6.4 | 0.00 | 0.00 | 0.00 | 33 | 1020.9 |
| 20260502002529 | 14 | 65 | 3.2 | 6.4 | 0.00 | 0.00 | 0.00 | 32 | 1020.9 |
| 20260502002034 | 14 | 67 | 3.2 | 6.4 | 0.00 | 0.00 | 0.00 | 32 | 1020.9 |
| 20260502001647 | 15 | 100 | 0.0 | 9.7 | 0.00 | 0.00 | 0.00 | 31 | 1020.9 |
| 20260502001020 | 15 | 70 | 3.2 | 6.4 | 0.00 | 0.00 | 0.00 | 30 | 1021.0 |
| 20260502000543 | 15 | 113 | 1.6 | 6.4 | 0.00 | 0.00 | 0.00 | 29 | 1021.1 |
| 20260502000138 | 15 | 122 | 1.6 | 9.7 | 0.00 | 0.00 | 0.00 | 33 | 1021.0 |
| 20260501235532 | 14 | 89 | 3.2 | 9.7 | 0.00 | 0.00 | 0.00 | 33 | 1021.1 |
| 20260501235117 | 15 | 91 | 4.8 | 9.7 | 0.00 | 0.00 | 0.00 | 34 | 1021.1 |
| 20260501234703 | 15 | 134 | 1.6 | 6.4 | 0.00 | 0.00 | 0.00 | 30 | 1021.2 |
| 20260501234037 | 15 | 151 | 0.0 | 6.4 | 0.00 | 0.00 | 0.00 | 30 | 1021.1 |
| 20260501233537 | 15 | 88 | 3.2 | 9.7 | 0.00 | 0.00 | 0.00 | 31 | 1021.2 |
| 20260501233133 | 15 | 86 | 3.2 | 9.7 | 0.00 | 0.00 | 0.00 | 33 | 1021.0 |
| 20260501232533 | 15 | 91 | 1.6 | 11.3 | 0.00 | 0.00 | 0.00 | 33 | 1021.1 |
| 20260501232026 | 15 | 60 | 3.2 | 9.7 | 0.00 | 0.00 | 0.00 | 33 | 1021.1 |
| 20260501231645 | 15 | 72 | 1.6 | 11.3 | 0.00 | 0.00 | 0.00 | 32 | 1021.2 |
| 20260501231032 | 15 | 82 | 4.8 | 16.1 | 0.00 | 0.00 | 0.00 | 33 | 1021.1 |
| 20260501230525 | 15 | 132 | 6.4 | 16.1 | 0.00 | 0.00 | 0.00 | 30 | 1021.3 |
| 20260501230150 | 15 | 85 | 3.2 | 12.9 | 0.00 | 0.00 | 0.00 | 34 | 1021.2 |
| 20260501225522 | 15 | 77 | 3.2 | 9.7 | 0.00 | 0.00 | 0.00 | 33 | 1021.2 |
| 20260501225031 | 16 | 64 | 3.2 | 9.7 | 0.00 | 0.00 | 0.00 | 29 | 1021.4 |
| 20260501224629 | 15 | 261 | 3.2 | 9.7 | 0.00 | 0.00 | 0.00 | 29 | 1021.4 |
| 20260501224044 | 15 | 266 | 3.2 | 14.5 | 0.00 | 0.00 | 0.00 | 29 | 1021.4 |
| 20260501223524 | 15 | 149 | 4.8 | 14.5 | 0.00 | 0.00 | 0.00 | 33 | 1021.4 |
| 20260501223154 | 15 | 124 | 4.8 | 9.7 | 0.00 | 0.00 | 0.00 | 30 | 1021.3 |
| 20260501222547 | 15 | 2 | 4.8 | 17.7 | 0.00 | 0.00 | 0.00 | 30 | 1021.4 |
| 20260501222032 | 16 | 141 | 1.6 | 17.7 | 0.00 | 0.00 | 0.00 | 34 | 1021.4 |
| 20260501221709 | 16 | 244 | 0.0 | 6.4 | 0.00 | 0.00 | 0.00 | 29 | 1021.5 |
| 20260501221036 | 15 | 82 | 1.6 | 8.0 | 0.00 | 0.00 | 0.00 | 34 | 1021.5 |
| 20260501220523 | 15 | 82 | 3.2 | 12.9 | 0.00 | 0.00 | 0.00 | 30 | 1021.5 |
| 20260501220133 | 15 | 129 | 1.6 | 12.9 | 0.00 | 0.00 | 0.00 | 33 | 1021.4 |